#timestamp,LO_Frequency,Hit,StdDev 
1542423615.7,286047000.4,P
1542423635.6,286046999.8,N
1542423655.4,286047002.7,N
1542423675.2,286047002.4,N
1542423695.1,286047001.4,N
1542423696.0,286047001.4,N
1542423715.8,286047003.6,Y
1542423735.7,286047003.7,P
1542423755.5,286047005.6,P
1542423775.3,286047007.5,P
1542423795.2,286047008.5,Y
1542423815.0,286047001.3,P
1542423815.9,286047001.3,N
1542423835.8,286047001.4,N
1542423855.6,286047001.8,N
1542423875.4,286047003.7,N
1542423895.3,286047005.7,Y
1542423915.1,286047003.9,P
1542423935.9,286047004.3,P
1542423955.7,286047001.4,N
1542423975.5,286047002.5,N
1542423995.4,286047004.1,Y
1542424015.2,286047000.5,P
1542424035.0,286046998.5,N
1542424035.9,286046998.5,N
1542424055.8,286046999.1,N
1542424075.6,286047000.1,N
1542424095.5,286046999.9,N
1542424115.3,286047000.0,N
1542424135.1,286047000.3,N
1542424155.9,286047002.3,N
1542424175.7,286047002.6,N
1542424195.5,286047001.5,N
1542424215.4,286047002.1,N
1542424235.2,286047003.3,N
1542424255.1,286047005.7,Y
1542424256.0,286047005.7,P
1542424275.8,286047004.3,N
1542424295.6,286047001.6,N
1542424315.5,286047000.1,N
1542424335.3,286046999.8,N
1542424355.2,286047002.8,N
1542424375.9,286046999.8,N
1542424395.7,286046999.9,N
1542424415.6,286047002.5,N
1542424435.4,286047002.5,N
1542424455.2,286047002.6,N
1542424475.1,286046999.8,N
1542424476.0,286046999.8,N
1542424495.8,286047002.4,N
1542424515.7,286047001.6,N
1542424535.5,286047004.0,N
1542424555.3,286047003.7,N
1542424575.2,286047004.3,N
1542424595.0,286047004.0,N
1542424595.9,286047004.0,N
1542424615.8,286047003.4,N
1542424635.6,286047001.7,N
1542424655.4,286047002.6,N
1542424675.3,286047001.8,N
1542424695.1,286047003.3,N
1542424715.8,286047004.0,N
1542424735.7,286047004.3,N
1542424755.5,286047003.8,N
1542424775.4,286047001.8,N
1542424795.2,286047004.3,N
1542424815.0,286047004.3,N
1542424815.9,286047004.3,N
1542424835.8,286047003.8,N
1542424855.6,286047003.4,N
1542424875.4,286047004.1,N
1542424895.3,286047003.2,N
1542424915.1,286047006.0,Y
1542424935.9,286047002.6,P
1542424955.7,286047000.1,N
1542424975.5,286046999.8,N
1542424995.4,286047000.1,N
1542425015.2,286047000.6,N
1542425035.0,286046998.4,N
1542425036.0,286046998.4,N
1542425055.8,286047001.1,N
1542425075.6,286046999.9,N
1542425095.5,286047000.5,N
1542425115.3,286047000.3,N
1542425135.1,286047000.7,N
1542425155.9,286047000.8,N
1542425175.7,286047000.1,N
1542425195.6,286047001.0,N
1542425215.4,286046999.8,N
1542425235.2,286047000.0,N
1542425255.1,286047000.2,N
1542425256.0,286047000.2,N
1542425275.8,286046998.3,N
1542425295.6,286046998.2,N
1542425315.5,286047001.0,N
1542425335.3,286047000.1,N
1542425355.2,286046999.9,N
1542425375.9,286046998.5,N
1542425395.7,286047000.7,N
1542425415.6,286047001.1,N
1542425435.4,286047001.1,N
1542425455.2,286046998.6,N
1542425475.1,286046999.2,N
1542425476.0,286046999.2,N
1542425495.8,286046998.8,N
1542425515.7,286046998.9,N
1542425535.5,286046996.9,Y
1542425555.3,286046999.0,P
1542425575.2,286046999.3,N
1542425595.0,286046998.5,P
1542425595.9,286046998.5,Y
1542425615.8,286046998.7,P
1542425635.6,286046999.6,N
1542425655.4,286046998.4,P
1542425675.3,286046998.2,Y
1542425695.1,286047001.1,P
1542425715.9,286046998.6,N
1542425735.7,286046999.1,N
1542425755.5,286046998.9,N
1542425775.4,286047001.2,N
1542425795.2,286047000.8,N
1542425815.0,286046998.7,N
1542425815.9,286046998.7,N
1542425835.8,286046998.3,N
1542425855.6,286047001.2,N
1542425875.5,286047000.5,N
1542425895.3,286047001.1,N
1542425915.1,286046998.1,N
1542425935.9,286046998.5,N
1542425955.7,286046998.9,N
1542425975.5,286046999.4,N
1542425995.4,286046999.5,N
1542426015.2,286046997.6,N
1542426035.1,286046997.6,N
1542426036.0,286046997.6,N
1542426055.8,286046997.5,N
1542426075.6,286046997.3,N
1542426095.5,286046999.1,N
1542426115.3,286046997.5,N
1542426135.2,286046997.2,N
1542426155.9,286046995.3,Y
1542426175.7,286046996.2,P
1542426195.6,286046993.9,P
1542426215.4,286046994.2,N
1542426235.2,286046991.7,Y
1542426255.1,286046999.3,P
1542426256.0,286046999.3,N
1542426275.8,286046998.8,N
1542426295.7,286046998.8,N
1542426315.5,286046998.1,N
1542426335.4,286046999.4,N
1542426355.2,286046998.9,N
1542426375.0,286046998.6,N
1542426375.9,286046998.6,N
1542426395.8,286046998.2,N
1542426415.6,286046998.3,N
1542426435.4,286046998.4,N
1542426455.3,286047000.7,N
1542426475.1,286046998.5,N
1542426495.9,286046999.4,N
1542426515.7,286046999.2,N
1542426535.5,286046999.6,N
1542426555.4,286046996.7,Y
1542426575.2,286046999.1,P
1542426595.0,286047001.1,P
1542426596.0,286047001.1,N
1542426615.8,286047000.9,N
1542426635.6,286046998.5,N
1542426655.5,286046998.8,N
1542426675.3,286046999.3,N
1542426695.1,286046998.6,N
1542426715.9,286046996.5,Y
1542426735.7,286046996.6,P
1542426755.6,286046998.9,N
1542426775.4,286046996.5,N
1542426795.2,286046997.6,N
1542426815.1,286046994.9,Y
1542426816.0,286046994.9,P
1542426835.8,286046998.6,N
1542426855.7,286047000.7,N
1542426875.5,286047001.1,N
1542426895.3,286047001.1,N
1542426915.2,286047001.0,N
1542426935.9,286046999.2,N
1542426955.7,286046996.9,N
1542426975.6,286046997.3,N
1542426995.4,286046996.5,N
1542427015.3,286046997.2,N
1542427035.1,286046999.6,N
1542427036.0,286046999.6,N
1542427055.8,286046996.9,N
1542427075.7,286046996.9,N
1542427095.5,286046997.1,N
1542427115.3,286046997.1,N
1542427135.2,286046997.1,N
1542427155.0,286046997.8,N
1542427155.9,286046997.8,N
1542427175.8,286046999.5,N
1542427195.6,286046999.4,N
